Powrót do katalogu

IRIDIUM 116

AktywnyŁącznośćPO
NORAD 43072·PAYLOAD·🇺🇸 United States

Wystrzelony Dec 23, 2017 z Vandenberg Space Force Base

Loading…

Następne Przeloty (najbliższe 24 godziny)

TLE

ŚwieżeSource: CelesTrak SupGP

Epoka: Sep 15, 2026, 02:05 UTC

1 43072C 17083C   26258.08715278 -.00001721  00000+0 -61537-3 0  2581
2 43072  86.3913 284.4168 0002025  90.8275 322.5164 14.34221128    13

Śledź IRIDIUM 116 w czasie rzeczywistym z AllMySat

Download on the App Store